Weather History for Provincetown, MA

Change the Weather History Date:

Friday, February 15, 2013

  Actual Average Record
Temperature  
Mean Temperature 40 °F -  
Max Temperature 46 °F 36 °F 56 °F (1954)
Min Temperature 33 °F 25 °F 12 °F (2003)
Degree Days  
Heating Degree Days 26    
Moisture  
Dew Point 34 °F    
Average Humidity 84    
Maximum Humidity 100    
Minimum Humidity 66    
Precipitation  
Precipitation 0.00 in - - ()
Sea Level Pressure  
Sea Level Pressure 30.00 in    
Wind  
Wind Speed 10 mph (SSW)    
Max Wind Speed 18 mph    
Max Gust Speed 24 mph    
Visibility 10 miles    
Events      
Averages and records for this station are not official NWS values.
T = Trace of Precipitation, MM = Missing Value Source: NWS Daily Summary

Daily Weather History Graph

Daily Weather History Graph

Search for Another Location

Airport:

Trip Planner

Search our weather history database for the weather conditions in past years. The results will help you decide how hot, cold, wet, or windy it might be!

Date:

Astronomy

Feb. 15, 2013 Rise Set
Actual Time 6:36 AM EST 5:13 PM EST
Civil Twilight 6:07 AM EST 5:42 PM EST
Nautical Twilight 5:35 AM EST 6:15 PM EST
Astronomical Twilight 5:02 AM EST 6:47 PM EST
Moon 9:04 AM EST (2/15) 11:19 PM EST (2/15)
Length of Visible Light 11h 34m
Length of Day
10h 37m
Waxing Crescent, 30% of the Moon is Illuminated
Feb 15
Waxing Crescent
Feb 17
First Quarter
Feb 25
Full
Mar 4
Last Quarter
Mar 11
New

Hourly Weather History & Observations

Time (EST) Temp. Windchill Dew Point Humidity Pressure Visibility Wind Dir Wind Speed Gust Speed Precip Events Conditions
12:15 AM 33.8 °F 26.4 °F 30.2 °F 87% 30.03 in 10.0 mi SSW 9.2 mph - N/A   Clear
12:35 AM 33.8 °F 27.7 °F 30.2 °F 87% 30.02 in 10.0 mi SSW 6.9 mph - N/A   Clear
12:55 AM 35.6 °F 28.6 °F 30.2 °F 81% 30.03 in 10.0 mi SSW 9.2 mph - N/A   Clear
1:15 AM 35.6 °F 28.0 °F 30.2 °F 81% 30.03 in 10.0 mi SSW 10.4 mph - N/A   Clear
1:35 AM 35.6 °F 28.0 °F 30.2 °F 81% 30.03 in 10.0 mi SSW 10.4 mph - N/A   Clear
1:55 AM 35.6 °F 29.2 °F 33.8 °F 93% 30.03 in 10.0 mi South 8.1 mph - N/A   Clear
2:15 AM 35.6 °F 28.6 °F 32.0 °F 87% 30.03 in 10.0 mi SSW 9.2 mph - N/A   Clear
2:35 AM 35.6 °F 28.0 °F 30.2 °F 81% 30.03 in 10.0 mi SSW 10.4 mph - N/A   Clear
2:55 AM 35.6 °F 28.6 °F 32.0 °F 87% 30.03 in 10.0 mi SSW 9.2 mph - N/A   Clear
3:15 AM 35.6 °F 28.6 °F 33.8 °F 93% 30.03 in 10.0 mi SSW 9.2 mph - N/A   Clear
3:35 AM 35.6 °F 29.2 °F 30.2 °F 81% 30.02 in 10.0 mi SSW 8.1 mph - N/A   Clear
3:55 AM 35.6 °F 29.2 °F 32.0 °F 87% 30.03 in 10.0 mi South 8.1 mph - N/A   Clear
4:15 AM 35.6 °F 29.2 °F 32.0 °F 87% 30.03 in 10.0 mi South 8.1 mph - N/A   Clear
4:35 AM 35.6 °F 29.2 °F 32.0 °F 87% 30.03 in 10.0 mi South 8.1 mph - N/A   Clear
4:55 AM 33.8 °F 28.6 °F 30.2 °F 87% 30.03 in 10.0 mi South 5.8 mph - N/A   Clear
5:35 AM 33.8 °F 28.6 °F 30.2 °F 87% 30.04 in 10.0 mi South 5.8 mph - N/A   Clear
5:55 AM 33.8 °F 27.0 °F 32.0 °F 93% 30.04 in 10.0 mi South 8.1 mph - N/A   Clear
6:15 AM 33.8 °F 28.6 °F 33.8 °F 100% 30.04 in 10.0 mi South 5.8 mph - N/A   Clear
6:35 AM 33.8 °F 27.0 °F 32.0 °F 93% 30.04 in 10.0 mi South 8.1 mph - N/A   Clear
6:55 AM 35.6 °F 28.6 °F 32.0 °F 87% 30.03 in 10.0 mi South 9.2 mph - N/A   Clear
7:15 AM 35.6 °F 28.6 °F 33.8 °F 93% 30.03 in 10.0 mi South 9.2 mph - N/A   Clear
7:55 AM 37.4 °F 30.3 °F 33.8 °F 87% 30.03 in 10.0 mi South 10.4 mph - N/A   Clear
8:15 AM 37.4 °F 30.3 °F 33.8 °F 87% 30.03 in 10.0 mi South 10.4 mph - N/A   Clear
8:35 AM 39.2 °F 32.0 °F 35.6 °F 87% 30.04 in 10.0 mi South 11.5 mph 16.1 mph N/A   Clear
8:55 AM 39.2 °F 32.5 °F 35.6 °F 87% 30.05 in 10.0 mi South 10.4 mph 16.1 mph N/A   Clear
9:15 AM 39.2 °F 31.2 °F 35.6 °F 87% 30.05 in 10.0 mi SSW 13.8 mph - N/A   Clear
9:35 AM 39.2 °F 30.5 °F 35.6 °F 87% 30.05 in 10.0 mi SSW 16.1 mph - N/A   Clear
9:55 AM 41.0 °F 33.1 °F 37.4 °F 87% 30.05 in 10.0 mi SSW 15.0 mph 20.7 mph N/A   Clear
10:35 AM 42.8 °F 36.2 °F 37.4 °F 81% 30.05 in 10.0 mi SSW 12.7 mph - N/A   Clear
10:55 AM 42.8 °F 35.8 °F 37.4 °F 81% 30.05 in 9.0 mi SSW 13.8 mph 18.4 mph N/A   Clear
11:15 AM 44.6 °F 38.8 °F 37.4 °F 76% 30.04 in 9.0 mi SSW 11.5 mph 20.7 mph N/A   Clear
11:35 AM 44.6 °F 38.4 °F 37.4 °F 76% 30.03 in 10.0 mi South 12.7 mph 16.1 mph N/A   Clear
11:55 AM 44.6 °F 37.4 °F 35.6 °F 71% 30.02 in 10.0 mi SSW 16.1 mph 20.7 mph N/A   Clear
12:15 PM 44.6 °F 37.2 °F 37.4 °F 76% 30.01 in 10.0 mi South 17.3 mph 24.2 mph N/A   Clear
1:15 PM 44.6 °F 36.9 °F 37.4 °F 76% 29.99 in 10.0 mi SSW 18.4 mph 21.9 mph N/A   Clear
1:35 PM 46.4 °F 40.4 °F 37.4 °F 71% 29.98 in 10.0 mi South 13.8 mph 19.6 mph N/A   Clear
1:55 PM 44.6 °F 38.4 °F 37.4 °F 76% 29.98 in 10.0 mi South 12.7 mph 20.7 mph N/A   Clear
2:15 PM 44.6 °F 38.1 °F 35.6 °F 71% 29.99 in 10.0 mi South 13.8 mph - N/A   Clear
2:35 PM 44.6 °F 38.4 °F 35.6 °F 71% 29.98 in 10.0 mi SSW 12.7 mph 21.9 mph N/A   Clear
2:55 PM 44.6 °F 38.1 °F 35.6 °F 71% 29.98 in 10.0 mi SSW 13.8 mph 17.3 mph N/A   Clear
3:15 PM 44.6 °F 37.8 °F 35.6 °F 71% 29.98 in 10.0 mi SSW 15.0 mph - N/A   Clear
3:35 PM 44.6 °F 38.8 °F 33.8 °F 66% 29.98 in 10.0 mi South 11.5 mph 18.4 mph N/A   Clear
3:55 PM 42.8 °F 36.2 °F 35.6 °F 76% 29.97 in 10.0 mi SSW 12.7 mph 18.4 mph N/A   Clear
4:15 PM 42.8 °F 36.6 °F 33.8 °F 70% 29.97 in 10.0 mi South 11.5 mph - N/A   Clear
4:35 PM 41.0 °F 34.3 °F 35.6 °F 81% 29.96 in 10.0 mi South 11.5 mph 17.3 mph N/A   Clear
4:55 PM 41.0 °F 34.7 °F 33.8 °F 76% 29.97 in 10.0 mi South 10.4 mph 17.3 mph N/A   Clear
5:15 PM 39.2 °F 32.0 °F 35.6 °F 87% 29.97 in 10.0 mi South 11.5 mph 18.4 mph N/A   Clear
5:35 PM 39.2 °F 32.0 °F 35.6 °F 87% 29.97 in 10.0 mi South 11.5 mph 17.3 mph N/A   Clear
5:55 PM 39.2 °F 31.2 °F 35.6 °F 87% 29.97 in 10.0 mi South 13.8 mph 19.6 mph N/A   Clear
6:15 PM 39.2 °F 31.2 °F 35.6 °F 87% 29.97 in 10.0 mi South 13.8 mph 18.4 mph N/A   Clear
6:35 PM 39.2 °F 32.0 °F 35.6 °F 87% 29.97 in 10.0 mi South 11.5 mph 20.7 mph N/A   Clear
6:55 PM 39.2 °F 31.6 °F 35.6 °F 87% 29.97 in 10.0 mi SSW 12.7 mph 19.6 mph N/A   Clear
7:15 PM 39.2 °F 30.8 °F 35.6 °F 87% 29.97 in 10.0 mi South 15.0 mph 23.0 mph N/A   Clear
7:35 PM 39.2 °F 30.8 °F 35.6 °F 87% 29.97 in 10.0 mi South 15.0 mph 21.9 mph N/A   Clear
7:55 PM 39.2 °F 31.2 °F 35.6 °F 87% 29.97 in 10.0 mi South 13.8 mph - N/A   Clear
8:15 PM 39.2 °F 31.6 °F 35.6 °F 87% 29.98 in 10.0 mi SSW 12.7 mph 19.6 mph N/A   Clear
8:35 PM 39.2 °F 32.5 °F 35.6 °F 87% 29.98 in 10.0 mi SSW 10.4 mph 18.4 mph N/A   Clear
8:55 PM 39.2 °F 32.0 °F 35.6 °F 87% 29.98 in 10.0 mi SSW 11.5 mph - N/A   Clear
9:15 PM 39.2 °F 32.5 °F 35.6 °F 87% 29.98 in 10.0 mi SSW 10.4 mph 17.3 mph N/A   Clear
9:35 PM 39.2 °F 33.0 °F 35.6 °F 87% 29.97 in 10.0 mi SSW 9.2 mph - N/A   Clear
9:55 PM 39.2 °F 33.0 °F 35.6 °F 87% 29.97 in 10.0 mi SSW 9.2 mph - N/A   Clear
10:15 PM 37.4 °F 31.4 °F 35.6 °F 93% 29.98 in 10.0 mi South 8.1 mph - N/A   Clear
10:35 PM 37.4 °F 31.4 °F 35.6 °F 93% 29.98 in 10.0 mi South 8.1 mph - N/A   Clear
10:55 PM 37.4 °F 32.1 °F 35.6 °F 93% 29.97 in 10.0 mi South 6.9 mph - N/A   Clear
11:15 PM 37.4 °F 32.1 °F 35.6 °F 93% 29.96 in 10.0 mi South 6.9 mph - N/A   Clear
11:35 PM 37.4 °F 32.1 °F 35.6 °F 93% 29.96 in 10.0 mi South 6.9 mph - N/A   Clear
11:55 PM 37.4 °F 32.1 °F 35.6 °F 93% 29.96 in 10.0 mi South 6.9 mph - N/A   Clear